Date String (YYYY-MM-DD hh:mm:ss) UTC,Instrument flags,absolute air pressure of the measurement (hPa),sample flow rate (lpm),inlet stack bypass flow (lpm),air temperature of the measurement (°C),ambient temperature measured by the external sensor (°C),aerosol sample conditioner tube jacket temperature (°C),OPC LED temperature (°C),internal box temperature (°C),relative humidity of the measurement (%),span deviation,mass concentration of particles derived from Lorenz-Mie calculation of OPC scattering (μg/m³),mass concentration of particles derived from Lorenz-Mie calculation of OPC scattering (μg/m³),mass concentration of particles derived from Lorenz-Mie calculation of OPC scattering (μg/m³)
DateTimeUTC,F1_M11,P_M11,Q1_M11,Q2_M11,T1_M11,T2_M11,T3_M11,T4_M11,T5_M11,U1_M11,ZSPAN_M11,X2_M11,X0_M11,X1_M11
2023-08-05 12:00:00,SystemResetWarning,0835.1,5.00,000.00,029.8,028.6,000.0,038.4,031.4,25.8,0000.0,0004.44,0007.99,0004.02
2023-08-05 12:01:00,SystemResetWarning,0834.9,5.00,000.00,029.8,028.6,000.0,038.4,031.4,25.8,0000.0,0004.43,0007.87,0004.01
2023-08-05 12:02:00,SystemResetWarning,0834.9,5.00,000.00,029.9,028.6,000.0,038.4,031.5,25.8,0000.0,0004.42,0007.60,0004.02
2023-08-05 12:03:00,SystemResetWarning,0834.9,5.00,000.00,029.9,028.7,000.0,038.4,031.4,25.7,0000.0,0004.42,0007.65,0004.01
2023-08-05 12:04:00,SystemResetWarning,0834.5,5.00,000.00,029.9,028.6,000.0,038.5,031.5,25.7,0000.0,0004.44,0007.63,0004.02
2023-08-05 12:05:00,SystemResetWarning,0834.7,5.00,000.00,029.9,028.6,000.0,038.5,031.5,25.7,0000.0,0004.42,0007.55,0004.02
2023-08-05 12:06:00,SystemResetWarning,0834.8,5.00,000.00,029.9,028.6,000.0,038.5,031.5,25.5,0000.0,0004.41,0007.52,0004.02
2023-08-05 12:07:00,SystemResetWarning,0834.9,5.00,000.00,029.9,028.6,000.0,038.5,031.5,25.3,0000.0,0004.43,0007.43,0004.04
2023-08-05 12:08:00,SystemResetWarning,0834.9,5.00,000.00,029.9,028.6,000.0,038.5,031.5,25.2,0000.0,0004.41,0007.36,0004.04
2023-08-05 12:09:00,SystemResetWarning,0835.1,5.00,000.00,029.9,028.6,000.0,038.5,031.5,25.0,0000.0,0004.38,0007.25,0004.03
2023-08-05 12:10:00,SystemResetWarning,0835.1,5.00,000.00,030.0,028.6,000.0,038.5,031.5,24.9,0000.0,0004.39,0007.28,0004.04
2023-08-05 12:11:00,SystemResetWarning,0834.9,5.00,000.00,030.0,028.6,000.0,038.6,031.5,24.8,0000.0,0004.40,0007.23,0004.05
2023-08-05 12:12:00,SystemResetWarning,0835.0,5.00,000.00,030.0,027.5,000.0,038.5,031.4,24.5,0000.0,0004.44,0007.32,0004.06
2023-08-05 12:13:00,SystemResetWarning,0834.9,5.00,000.00,029.9,025.7,000.0,038.3,031.1,24.4,0000.0,0004.44,0007.23,0004.05
2023-08-05 12:14:00,SystemResetWarning,0834.6,5.01,000.00,029.8,025.2,000.0,038.2,030.9,24.6,0000.0,0004.43,0006.98,0004.04
2023-08-05 12:15:00,SystemResetWarning,0834.9,5.01,000.00,029.7,025.4,000.0,038.2,030.7,25.0,0000.0,0004.43,0007.15,0004.03
2023-08-05 12:16:00,SystemResetWarning,0835.0,5.00,000.00,029.6,025.8,000.0,038.3,030.7,24.9,0000.0,0004.45,0007.24,0004.03
2023-08-05 12:17:00,SystemResetWarning,0835.1,5.00,000.00,029.5,026.2,000.0,038.3,030.8,25.2,0000.0,0004.47,0007.52,0004.04
2023-08-05 12:18:00,SystemResetWarning,0835.1,5.00,000.00,029.5,026.6,000.0,038.2,030.9,25.4,0000.0,0004.43,0008.74,0004.03
2023-08-05 12:19:00,SystemResetWarning,0834.7,5.00,000.00,029.5,026.9,000.0,038.2,030.9,25.6,0000.0,0004.45,0008.76,0004.04
2023-08-05 12:20:00,SystemResetWarning,0834.6,4.99,000.00,029.5,027.2,000.0,038.2,031.0,25.4,0000.0,0004.46,0008.78,0004.05
2023-08-05 12:21:00,SystemResetWarning,0834.6,5.00,000.00,029.5,027.4,000.0,038.2,031.0,25.5,0000.0,0004.46,0008.74,0004.06
2023-08-05 12:22:00,SystemResetWarning,0834.6,5.00,000.00,029.5,027.6,000.0,038.2,031.0,25.6,0000.0,0004.46,0008.72,0004.06
2023-08-05 12:23:00,SystemResetWarning,0835.1,5.00,000.00,029.5,027.7,000.0,038.2,031.1,25.2,0000.0,0004.46,0008.71,0004.07
2023-08-05 12:24:00,SystemResetWarning,0835.1,4.99,000.00,029.5,027.8,000.0,038.2,031.1,25.1,0000.0,0004.48,0008.72,0004.08
2023-08-05 12:25:00,SystemResetWarning,0835.2,5.00,000.00,029.5,027.9,000.0,038.2,031.1,25.3,0000.0,0004.51,0008.74,0004.09
2023-08-05 12:26:00,SystemResetWarning,0835.2,5.00,000.00,029.5,028.0,000.0,038.2,031.1,25.4,0000.0,0004.50,0008.65,0004.10
2023-08-05 12:27:00,SystemResetWarning,0835.3,5.00,000.00,029.6,028.1,000.0,038.2,031.1,25.4,0000.0,0004.49,0008.66,0004.09
2023-08-05 12:28:00,SystemResetWarning,0835.2,5.00,000.00,029.6,028.1,000.0,038.2,031.2,25.1,0000.0,0004.46,0008.61,0004.08
2023-08-05 12:29:00,SystemResetWarning,0835.3,5.00,000.00,029.6,028.2,000.0,038.2,031.2,25.0,0000.0,0004.49,0007.48,0004.08
2023-08-05 12:30:00,SystemResetWarning,0835.2,5.00,000.00,029.6,028.2,000.0,038.2,031.2,24.9,0000.0,0004.50,0007.25,0004.08
2023-08-05 12:31:00,SystemResetWarning,0835.2,5.00,000.00,029.6,028.3,000.0,038.3,031.2,24.9,0000.0,0004.49,0008.04,0004.08
2023-08-05 12:32:00,SystemResetWarning,0835.2,5.00,000.00,029.7,028.3,000.0,038.3,031.3,24.9,0000.0,0004.48,0008.24,0004.06
2023-08-05 12:33:00,SystemResetWarning,0834.9,5.00,000.00,029.7,028.4,000.0,038.3,031.3,24.9,0000.0,0004.50,0008.30,0004.05
2023-08-05 12:34:00,SystemResetWarning,0834.7,5.01,000.00,029.7,028.4,000.0,038.3,031.3,24.9,0000.0,0004.43,0008.18,0004.03
2023-08-05 12:35:00,SystemResetWarning,0834.7,4.99,000.00,029.7,028.4,000.0,038.3,031.3,25.0,0000.0,0004.41,0008.14,0004.02
2023-08-05 12:36:00,SystemResetWarning,0835.2,4.99,000.00,029.7,028.5,000.0,038.3,031.4,25.5,0000.0,0004.39,0008.07,0004.01
2023-08-05 12:37:00,SystemResetWarning,0835.3,5.00,000.00,029.7,028.5,000.0,038.3,031.4,26.2,0000.0,0004.38,0008.07,0003.99
2023-08-05 12:38:00,SystemResetWarning,0834.9,5.01,000.00,029.8,028.6,000.0,038.3,031.4,26.1,0000.0,0004.36,0008.01,0003.99
2023-08-05 12:39:00,SystemResetWarning,0835.0,5.00,000.00,029.8,028.6,000.0,038.4,031.4,25.6,0000.0,0004.38,0008.04,0003.98
2023-08-05 12:40:00,SystemResetWarning,0835.0,5.00,000.00,029.8,028.6,000.0,038.4,031.4,25.6,0000.0,0004.36,0008.09,0003.97
2023-08-05 12:41:00,SystemResetWarning,0835.0,5.00,000.00,029.8,028.7,000.0,038.4,031.5,26.3,0000.0,0004.34,0008.34,0003.95
2023-08-05 12:42:00,SystemResetWarning,0835.1,5.00,000.00,029.9,028.7,000.0,038.4,031.5,26.5,0000.0,0004.35,0008.06,0003.94
2023-08-05 12:43:00,SystemResetWarning,0835.1,5.00,000.00,029.9,028.7,000.0,038.4,031.5,26.0,0000.0,0004.36,0007.82,0003.95
2023-08-05 12:44:00,SystemResetWarning,0835.1,4.99,000.00,029.9,028.8,000.0,038.5,031.5,26.3,0000.0,0004.37,0007.85,0003.95
2023-08-05 12:45:00,SystemResetWarning,0835.1,5.00,000.00,029.9,028.8,000.0,038.5,031.5,26.7,0000.0,0004.37,0007.91,0003.95
2023-08-05 12:46:00,SystemResetWarning,0835.1,5.00,000.00,029.9,028.8,000.0,038.5,031.6,26.8,0000.0,0004.37,0007.93,0003.94
2023-08-05 12:47:00,SystemResetWarning,0835.1,5.00,000.00,030.0,028.8,000.0,038.5,031.6,26.2,0000.0,0004.38,0008.08,0003.94
2023-08-05 12:48:00,SystemResetWarning,0835.1,4.99,000.00,030.0,028.4,000.0,038.5,031.6,26.1,0000.0,0004.37,0008.15,0003.95
2023-08-05 12:49:00,SystemResetWarning,0835.0,5.00,000.00,030.0,026.6,000.0,038.4,031.3,26.0,0000.0,0004.40,0008.30,0003.95
2023-08-05 12:50:00,SystemResetWarning,0835.0,5.02,000.00,029.9,025.9,000.0,038.2,031.2,26.0,0000.0,0004.41,0008.38,0003.95
2023-08-05 12:51:00,SystemResetWarning,0835.0,5.00,000.00,029.8,026.1,000.0,038.3,030.9,26.3,0000.0,0004.38,0008.27,0003.94
2023-08-05 12:52:00,SystemResetWarning,0835.0,5.00,000.00,029.7,026.4,000.0,038.3,031.0,26.7,0000.0,0004.38,0007.99,0003.94
2023-08-05 12:53:00,SystemResetWarning,0835.0,5.00,000.00,029.7,026.7,000.0,038.3,031.0,26.8,0000.0,0004.35,0007.52,0003.93
2023-08-05 12:54:00,SystemResetWarning,0835.1,5.00,000.00,029.7,027.1,000.0,038.3,031.1,26.4,0000.0,0004.34,0007.56,0003.92
2023-08-05 12:55:00,SystemResetWarning,0835.1,4.99,000.00,029.7,027.4,000.0,038.3,031.2,26.2,0000.0,0004.30,0007.47,0003.93
2023-08-05 12:56:00,SystemResetWarning,0835.1,5.00,000.00,029.7,027.6,000.0,038.3,031.2,26.8,0000.0,0004.31,0007.54,0003.93
2023-08-05 12:57:00,SystemResetWarning,0835.2,5.00,000.00,029.7,027.8,000.0,038.3,031.2,27.8,0000.0,0004.34,0007.71,0003.94
2023-08-05 12:58:00,SystemResetWarning,0835.2,4.99,000.00,029.7,028.0,000.0,038.4,031.3,28.0,0000.0,0004.35,0007.64,0003.94
2023-08-05 12:59:00,SystemResetWarning,0835.2,5.00,000.00,029.7,028.1,000.0,038.4,031.3,28.0,0000.0,0004.36,0008.09,0003.94
